User: anonymous
Location: Mentone
(34.5413°N, 85.5351°W)
Time: 13:33:17
(UTC-05:00)
Language:

S-56A Canister/Altair - Orbit

View from above orbital plane
View from above orbital plane
View from above satellite
View from above satellite

Ground track
Ground track

The orbit data is extracted from the following two-line orbital elements,

1 00082U 61004B   14241.03469950 -.00000082  00000-0 -36478-4 0  7137
2 00082 038.8604 122.7301 1177695 298.4117 050.2812 12.25640226547717
Epoch (UTC): 29 August 2014 00:49:58
Eccentricity: 0.1177695
inclination: 38.8604°
perigee height: 632 km
apogee height: 2504 km
right ascension of ascending node: 122.7301°
argument of perigee: 298.4117°
revolutions per day: 12.25640226
mean anomaly at epoch: 50.2812°
orbit number at epoch: 54771

The dashed part of the orbit path shows where the satellite is in the earth's shadow,  

DLR